This demonstration page uses our WeatherBlox Daily Observations layout. Learn more.

39.29038, -76.61219

Hourly Observations for April 3, 2016

Temp ( °F °C ) Dew Point ( °F °C ) Humidity (%) Winds ( mph kmh ) Pressure ( in mb ) Visibility ( mi km ) Precip ( " mm )
12:54 am 00:54 undefined 46 7.8 21 -6.1 37 37 undefined N/A 29.49 999 N/A 0 0
1:54 am 01:54 undefined 44 6.7 20 -6.7 38 38 undefined N/A 29.51 999 N/A 0 0
2:54 am 02:54 undefined 43 6.1 22 -5.6 43 43 undefined N/A 29.55 1001 N/A 0 0
3:54 am 03:54 undefined 42 5.6 21 -6.1 43 43 undefined N/A 29.61 1003 N/A 0 0
4:54 am 04:54 undefined 40 4.4 17 -8.3 40 40 undefined N/A 29.67 1005 N/A 0 0
5:54 am 05:54 undefined 38 3.3 14 -10 37 37 undefined N/A 29.74 1007 N/A 0 0
6:54 am 06:54 undefined 37 2.8 15 -9.4 41 41 undefined N/A 29.79 1009 N/A 0 0
7:54 am 07:54 undefined 36 2.2 13 -10.6 39 39 undefined N/A 29.87 1012 N/A 0 0
8:54 am 08:54 undefined 37 2.8 6 -14.4 27 27 undefined N/A 29.91 1013 N/A 0 0
9:54 am 09:54 undefined 37 2.8 3 -16.1 24 24 undefined N/A 29.95 1014 N/A 0 0
10:54 am 10:54 undefined 39 3.9 5 -15 24 24 undefined N/A 30 1016 N/A 0 0
11:54 am 11:54 undefined 40 4.4 8 -13.3 27 27 undefined N/A 30 1016 N/A 0 0
12:54 pm 12:54 undefined 42 5.6 10 -12.2 27 27 undefined N/A 30 1016 N/A 0 0
1:54 pm 13:54 undefined 44 6.7 9 -12.8 24 24 undefined N/A 29.99 1016 N/A 0 0
2:54 pm 14:54 undefined 46 7.8 12 -11.1 25 25 undefined N/A 30.01 1016 N/A 0 0
3:54 pm 15:54 undefined 48 8.9 14 -10 25 25 undefined N/A 29.98 1015 N/A 0 0
4:54 pm 16:54 undefined 49 9.4 14 -10 25 25 undefined N/A 29.98 1015 N/A 0 0
5:54 pm 17:54 undefined 50 10 16 -8.9 26 26 undefined N/A 29.96 1015 N/A 0 0
6:54 pm 18:54 undefined 50 10 16 -8.9 26 26 undefined N/A 29.98 1015 N/A 0 0
7:54 pm 19:54 undefined 50 10 17 -8.3 27 27 undefined N/A 29.98 1015 N/A 0 0
8:54 pm 20:54 undefined 49 9.4 18 -7.8 29 29 undefined N/A 29.98 1015 N/A 0 0
9:54 pm 21:54 undefined 48 8.9 22 -5.6 36 36 undefined N/A 30 1016 N/A 0 0
10:54 pm 22:54 undefined 47 8.3 23 -5 39 39 undefined N/A 29.98 1015 N/A 0 0
11:54 pm 23:54 undefined 48 8.9 31 -0.6 52 52 undefined N/A 29.97 1015 N/A 0 0

Powered by AerisWeather